EW0600 Weather Reports


Display with metric or nautical units.
time (UTC)temp
F
wind
direction
speed
MPH
gust
MPH
rain 1hr
in
rain 24hr
in
rain mn
in
humidity
%
barometer
mb
20210731065949 59 217 1.0 2.0 0.00 0.00 0.00 91 1015.0
20210731064951 59 207 1.0 2.0 0.00 0.00 0.00 91 1015.1
20210731064506 59 213 2.0 3.0 0.00 0.00 0.00 91 1015.1
20210731063946 59 208 2.0 5.0 0.00 0.00 0.00 91 1015.1
20210731062946 59 228 3.0 5.0 0.00 0.00 0.00 91 1015.3
20210731061919 59 217 2.0 4.0 0.00 0.00 0.00 91 1015.2
20210731061508 59 220 3.0 4.0 0.00 0.00 0.00 91 1015.3
20210731060842 59 231 1.0 1.0 0.00 0.00 0.00 91 1015.3
20210731055857 60 255 0.0 2.0 0.00 0.00 0.00 91 1015.3
20210731054853 60 266 0.0 1.0 0.00 0.00 0.00 91 1015.3
20210731053913 60 256 0.0 0.0 0.00 0.00 0.00 90 1015.3
20210731053003 60 237 2.0 3.0 0.00 0.00 0.00 91 1015.1
20210731052840 60 231 1.0 3.0 0.00 0.00 0.00 91 1015.1
20210731051833 60 214 1.0 4.0 0.00 0.00 0.00 90 1015.0
20210731050839 60 246 1.0 4.0 0.00 0.00 0.00 90 1014.9
20210731050004 60 238 2.0 5.0 0.00 0.00 0.00 90 1015.0
20210731045814 61 235 2.0 3.0 0.00 0.00 0.00 90 1014.9
20210731044739 61 231 3.0 4.0 0.00 0.00 0.00 90 1014.9
20210731043735 61 230 3.0 4.0 0.00 0.00 0.00 89 1015.1
20210731043005 61 238 3.0 5.0 0.00 0.00 0.00 88 1015.1
20210731042750 62 238 3.0 4.0 0.00 0.00 0.00 88 1015.1
20210731041811 62 241 2.0 4.0 0.00 0.00 0.00 88 1015.2
20210731040758 62 234 3.0 5.0 0.00 0.00 0.00 88 1015.2
20210731040012 62 229 4.0 5.0 0.00 0.00 0.00 87 1015.1
20210731035807 63 227 4.0 5.0 0.00 0.00 0.00 87 1015.1
20210731034820 63 228 3.0 4.0 0.00 0.00 0.00 87 1015.2
20210731033840 63 233 3.0 4.0 0.00 0.00 0.00 86 1015.3
20210731033003 63 241 3.0 5.0 0.00 0.00 0.00 86 1015.3
20210731032902 64 242 3.0 4.0 0.00 0.00 0.00 86 1015.3
20210731031838 64 240 1.0 4.0 0.00 0.00 0.00 86 1015.1
20210731030805 64 263 2.0 4.0 0.00 0.00 0.00 87 1015.0
20210731025809 64 238 0.0 2.0 0.00 0.00 0.00 88 1015.0
20210731024757 64 214 0.0 0.0 0.00 0.00 0.00 88 1015.1
20210731024502 64 238 0.0 1.0 0.00 0.00 0.00 88 1015.1
20210731023737 65 250 0.0 0.0 0.00 0.00 0.00 87 1015.1
20210731022709 65 250 0.0 0.0 0.00 0.00 0.00 86 1015.2
20210731021636 66 248 0.0 1.0 0.00 0.00 0.00 85 1015.2
20210731021517 66 252 0.0 2.0 0.00 0.00 0.00 85 1015.2
20210731020601 66 262 0.0 0.0 0.00 0.00 0.00 85 1015.2
20210731015600 66 250 0.0 2.0 0.00 0.00 0.00 85 1015.1
20210731014533 68 219 2.0 3.0 0.00 0.00 0.00 82 1015.1
20210731014503 67 219 2.0 4.0 0.00 0.00 0.00 82 1015.1
20210731013502 68 215 2.0 3.0 0.00 0.00 0.00 81 1015.1
20210731012436 68 216 2.0 3.0 0.00 0.00 0.00 81 1015.2
20210731011506 69 239 2.0 5.0 0.00 0.00 0.00 79 1015.3
20210731011406 69 243 2.0 5.0 0.00 0.00 0.00 79 1015.3
20210731010421 70 250 4.0 6.0 0.00 0.00 0.00 78 1015.3
20210731010009 69 239 4.0 7.0 0.00 0.00 0.00 78 1015.4
20210731005356 70 233 4.0 7.0 0.00 0.00 0.00 77 1015.3
20210731004413 71 231 5.0 7.0 0.00 0.00 0.00 77 1015.5
20210731003403 71 236 5.0 7.0 0.00 0.00 0.00 77 1015.5
20210731002342 72 243 5.0 8.0 0.00 0.00 0.00 76 1015.5
20210731001503 72 252 7.0 9.0 0.00 0.00 0.00 74 1015.6
20210731001314 72 245 5.0 8.0 0.00 0.00 0.00 75 1015.6
20210731000316 73 254 5.0 8.0 0.00 0.00 0.00 73 1015.6
20210730235306 73 245 4.0 6.0 0.00 0.00 0.00 76 1015.6
20210730234508 73 227 4.0 9.0 0.00 0.00 0.00 76 1015.7
20210730234240 73 247 4.0 8.0 0.00 0.00 0.00 76 1015.7
20210730233206 73 255 5.0 9.0 0.00 0.00 0.00 76 1015.9
20210730232224 74 236 6.0 9.0 0.00 0.00 0.00 74 1016.0
20210730231513 73 276 5.0 10.0 0.00 0.00 0.00 75 1016.2
20210730231149 73 272 5.0 9.0 0.00 0.00 0.00 73 1016.1
20210730230200 73 262 6.0 10.0 0.00 0.00 0.00 75 1016.1
20210730225152 73 268 6.0 10.0 0.00 0.00 0.00 75 1016.1
20210730224115 74 288 6.0 9.0 0.00 0.00 0.00 73 1016.0
20210730223110 74 229 6.0 11.0 0.00 0.00 0.00 71 1016.0
20210730223003 74 264 7.0 11.0 0.00 0.00 0.00 71 1016.0
20210730222100 74 310 6.0 11.0 0.00 0.00 0.00 73 1016.1
20210730221059 74 273 6.0 9.0 0.00 0.00 0.00 70 1016.0
20210730220052 74 281 6.0 9.0 0.00 0.00 0.00 73 1015.9
20210730220006 74 268 6.0 10.0 0.00 0.00 0.00 73 1016.0
20210730215032 74 267 5.0 8.0 0.00 0.00 0.00 73 1015.8
20210730213957 74 274 6.0 13.0 0.00 0.00 0.00 70 1015.9
20210730213012 74 239 6.0 14.0 0.00 0.00 0.00 70 1016.1
20210730212942 74 233 6.0 13.0 0.00 0.00 0.00 70 1016.1
20210730211909 74 238 6.0 11.0 0.00 0.00 0.00 68 1016.2
20210730211518 74 275 7.0 12.0 0.00 0.00 0.00 71 1016.3
20210730210905 74 258 6.0 11.0 0.00 0.00 0.00 70 1016.3
20210730205850 74 241 6.0 11.0 0.00 0.00 0.00 68 1016.3
20210730204830 74 238 5.0 8.0 0.00 0.00 0.00 69 1016.3
20210730204507 73 236 5.0 9.0 0.00 0.00 0.00 71 1016.3
20210730203839 74 243 4.0 8.0 0.00 0.00 0.00 70 1016.2
20210730203014 73 245 4.0 7.0 0.00 0.00 0.00 68 1016.3
20210730202812 74 227 3.0 6.0 0.00 0.00 0.00 68 1016.2
20210730201751 73 224 3.0 6.0 0.00 0.00 0.00 68 1016.1
20210730200745 73 210 4.0 6.0 0.00 0.00 0.00 69 1016.2
20210730200017 73 235 5.0 7.0 0.00 0.00 0.00 72 1016.3
20210730195742 73 221 3.0 8.0 0.00 0.00 0.00 71 1016.3
20210730194746 73 224 4.0 8.0 0.00 0.00 0.00 70 1016.5
20210730193746 74 197 4.0 7.0 0.00 0.00 0.00 69 1016.5
20210730193011 73 217 5.0 8.0 0.00 0.00 0.00 72 1016.6
20210730192728 74 219 5.0 7.0 0.00 0.00 0.00 70 1016.5
20210730191745 74 227 4.0 7.0 0.00 0.00 0.00 71 1016.7
20210730190712 74 206 3.0 7.0 0.00 0.00 0.00 70 1016.8
20210730190004 74 227 4.0 7.0 0.00 0.00 0.00 67 1016.8
20210730185636 74 212 4.0 6.0 0.00 0.00 0.00 68 1016.8
20210730184622 74 224 3.0 5.0 0.00 0.00 0.00 70 1016.8
20210730183627 74 207 2.0 5.0 0.00 0.00 0.00 66 1016.7
20210730183008 74 220 4.0 6.0 0.00 0.00 0.00 66 1016.9
20210730182649 74 200 3.0 4.0 0.00 0.00 0.00 67 1016.8
20210730181642 75 201 1.0 3.0 0.00 0.00 0.00 66 1016.9
20210730180641 75 212 0.0 2.0 0.00 0.00 0.00 66 1017.0
20210730180009 74 237 0.0 3.0 0.00 0.00 0.00 66 1016.9
20210730175645 75 223 0.0 3.0 0.00 0.00 0.00 67 1016.9
20210730174634 75 225 0.0 2.0 0.00 0.00 0.00 68 1016.9
20210730173639 75 148 0.0 1.0 0.00 0.00 0.00 67 1016.9
20210730173005 75 109 0.0 1.0 0.00 0.00 0.00 68 1017.0
20210730172613 75 109 0.0 0.0 0.00 0.00 0.00 69 1016.8
20210730171608 75 96 0.0 1.0 0.00 0.00 0.00 69 1016.7
20210730170559 75 89 1.0 5.0 0.00 0.00 0.00 69 1016.9
20210730165539 75 103 1.0 5.0 0.00 0.00 0.00 68 1016.9
20210730164541 76 93 0.0 3.0 0.00 0.00 0.00 64 1016.9
20210730164511 75 120 2.0 4.0 0.00 0.00 0.00 64 1017.0
20210730163530 76 68 0.0 1.0 0.00 0.00 0.00 65 1017.1
20210730162534 76 163 1.0 3.0 0.00 0.00 0.00 64 1017.1
20210730161510 75 108 1.0 4.0 0.00 0.00 0.00 66 1017.2
20210730161508 74 108 2.0 4.0 0.00 0.00 0.00 66 1017.2
20210730160439 74 124 2.0 4.0 0.00 0.00 0.00 68 1017.3
20210730155448 74 252 2.0 5.0 0.00 0.00 0.00 66 1017.3
20210730154502 73 221 5.0 6.0 0.00 0.00 0.00 66 1017.5
20210730154416 74 233 3.0 5.0 0.00 0.00 0.00 66 1017.4
20210730153426 74 145 1.0 4.0 0.00 0.00 0.00 62 1017.5
20210730152406 73 166 1.0 4.0 0.00 0.00 0.00 69 1017.7
20210730151515 72 196 1.0 5.0 0.00 0.00 0.00 72 1018.1
20210730151333 73 217 2.0 4.0 0.00 0.00 0.00 71 1018.1
20210730150315 73 226 0.0 3.0 0.00 0.00 0.00 72 1018.2
20210730145240 71 214 1.0 3.0 0.00 0.00 0.00 78 1018.4
20210730144510 71 225 1.0 3.0 0.00 0.00 0.00 78 1018.5
20210730144301 71 126 0.0 0.0 0.00 0.00 0.00 78 1018.4
20210730143229 69 118 0.0 0.0 0.00 0.00 0.00 86 1018.5
20210730142226 69 224 0.0 1.0 0.00 0.00 0.00 86 1018.6
20210730141503 68 210 0.0 3.0 0.00 0.00 0.00 89 1018.7
20210730141248 68 231 0.0 2.0 0.00 0.00 0.00 90 1018.6
20210730140215 67 259 0.0 1.0 0.00 0.00 0.00 91 1018.8
20210730135234 66 238 0.0 1.0 0.00 0.00 0.00 93 1018.8
20210730134503 66 257 0.0 0.0 0.00 0.00 0.00 93 1018.8
20210730134216 66 257 0.0 0.0 0.00 0.00 0.00 93 1018.7
20210730133220 65 160 0.0 0.0 0.00 0.00 0.00 92 1018.6
20210730132201 65 152 0.0 0.0 0.00 0.00 0.00 94 1018.4
20210730131511 64 151 0.0 0.0 0.00 0.00 0.00 95 1018.4
20210730131217 65 146 0.0 0.0 0.00 0.00 0.00 95 1018.3
20210730130222 64 100 0.0 0.0 0.00 0.00 0.00 95 1018.3
20210730125210 64 100 0.0 0.0 0.00 0.00 0.00 95 1018.1
20210730124502 63 100 0.0 0.0 0.00 0.00 0.00 95 1018.0
20210730124205 63 98 0.0 0.0 0.00 0.00 0.00 95 1018.0
20210730123226 63 106 0.0 0.0 0.00 0.00 0.00 95 1017.9
20210730122216 63 113 0.0 0.0 0.00 0.00 0.00 95 1017.9
20210730121511 62 113 0.0 0.0 0.00 0.00 0.00 94 1018.1
20210730121141 63 264 0.0 0.0 0.00 0.00 0.00 95 1018.1
20210730120112 62 278 0.0 0.0 0.00 0.00 0.00 95 1018.2
20210730115101 62 338 0.0 0.0 0.00 0.00 0.00 94 1018.1
20210730114507 61 338 0.0 0.0 0.00 0.00 0.00 94 1018.0
20210730114108 62 338 0.0 0.0 0.00 0.00 0.00 94 1017.9
20210730113050 62 90 0.0 0.0 0.00 0.00 0.00 94 1017.9
20210730112104 62 90 0.0 0.0 0.00 0.00 0.00 94 1017.7
20210730111516 62 103 0.0 0.0 0.00 0.00 0.00 93 1017.7
20210730111038 62 150 0.0 0.0 0.00 0.00 0.00 93 1017.7
20210730110100 62 150 0.0 0.0 0.00 0.00 0.00 94 1017.6
20210730105033 62 150 0.0 0.0 0.00 0.00 0.00 94 1017.5
20210730104502 61 150 0.0 0.0 0.00 0.00 0.00 94 1017.5
20210730104033 61 150 0.0 0.0 0.00 0.00 0.00 94 1017.5
20210730103051 61 48 0.0 0.0 0.00 0.00 0.00 94 1017.3
20210730102051 61 48 0.0 0.0 0.00 0.00 0.00 93 1017.2
20210730101503 61 48 0.0 0.0 0.00 0.00 0.00 94 1017.3
20210730101047 61 48 0.0 0.0 0.00 0.00 0.00 94 1017.2
20210730100021 61 48 0.0 0.0 0.00 0.00 0.00 95 1017.1
20210730094953 61 71 0.0 0.0 0.00 0.00 0.00 95 1017.1
20210730094502 61 71 0.0 0.0 0.00 0.00 0.00 95 1017.1
20210730093937 61 71 0.0 0.0 0.00 0.00 0.00 94 1017.0
20210730092922 61 71 0.0 0.0 0.00 0.00 0.00 95 1016.8
20210730091854 61 71 0.0 0.0 0.00 0.00 0.00 94 1016.7
20210730091517 60 71 0.0 0.0 0.00 0.00 0.00 94 1016.7
20210730090913 61 71 0.0 0.0 0.00 0.00 0.00 94 1016.5
20210730085932 61 71 0.0 0.0 0.00 0.00 0.00 94 1016.3
20210730084915 61 71 0.0 0.0 0.00 0.00 0.00 93 1016.2
20210730084505 61 71 0.0 0.0 0.00 0.00 0.00 93 1016.3
20210730083930 62 71 0.0 0.0 0.00 0.00 0.00 94 1016.3
20210730082931 61 71 0.0 0.0 0.00 0.00 0.00 93 1016.4
20210730081857 61 70 0.0 0.0 0.00 0.00 0.00 93 1016.5
20210730081511 61 71 0.0 0.0 0.00 0.00 0.00 94 1016.3
20210730080909 61 71 0.0 0.0 0.00 0.00 0.00 94 1016.3
20210730075910 62 73 0.0 0.0 0.00 0.00 0.00 92 1016.4
20210730074925 61 73 0.0 0.0 0.00 0.00 0.00 94 1016.2
20210730074503 61 73 0.0 1.0 0.00 0.00 0.00 92 1016.1
20210730073943 62 312 0.0 0.0 0.00 0.00 0.00 93 1016.1
20210730072914 62 312 0.0 0.0 0.00 0.00 0.00 92 1016.2
20210730071912 62 312 0.0 0.0 0.00 0.00 0.00 92 1016.1
20210730071503 62 312 0.0 0.0 0.00 0.00 0.00 92 1016.1
20210730070848 62 312 0.0 0.0 0.00 0.00 0.00 92 1016.1